Regional Weather Roundup
Issued by NWS

Home | Current Version | Previous Version | Text Only | Print | Product List | Glossary On
Versions: 1 2 3 4 5 6 7 8 9 10 11 12 13 14 15 16 17 18 19 20 21 22 23 24 25 26 27 28 29 30 31 32 33 34 35 36 37 38 39 40 41 42 43 44 45 46 47 48 49 50
000
ASUS44 KOUN 290010
RWROK

WEATHER ROUNDUP FOR OKLAHOMA
NATIONAL WEATHER SERVICE NORMAN OK
700 PM CDT WED SEP 28 2016

NOTE: "FAIR" INDICATES FEW OR NO CLOUDS BELOW 12,000 FEET WITH NO
      SIGNIFICANT WEATHER AND/OR OBSTRUCTIONS TO VISIBILITY.

OKZ001>007-009>012-014-015-017-290100-
NORTHWEST OKLAHOMA AND THE PANHANDLE

CITY           SKY/WX    TMP DP  RH WIND       PRES   REMARKS
GAGE           CLEAR     79  48  33 E7        30.17R
6HR MIN TEMP:  79; 6HR MAX TEMP:  91;

GUYMON         CLEAR     84  38  19 E10       30.18R
ENID/WOODRING  PTCLDY    75  46  35 N8        30.13R
$$

OKZ016-021>023-033>039-044-045-290100-
SOUTHWEST OKLAHOMA

CITY           SKY/WX    TMP DP  RH WIND       PRES   REMARKS
LAWTON/REGL    CLEAR     83  53  35 NE9       30.08R
6HR MIN TEMP:  83; 6HR MAX TEMP:  92;

LAWTON/FT SILL CLEAR     81  57  44 N6        30.08R
FREDERICK      CLEAR     84  53  34 MISG      30.06R
CLINTON          N/A     79  52  38 NE12      30.17R
HOBART         CLEAR     80  55  42 NE9       30.13R
ALTUS AFB      CLEAR     80  56  44 NE7       30.10R
$$

OKZ018>020-024>031-290100-
CENTRAL OKLAHOMA

CITY           SKY/WX    TMP DP  RH WIND       PRES   REMARKS
OKLAHOMA CITY  PTCLDY    79  48  33 N15       30.10R
6HR MIN TEMP:  79; 6HR MAX TEMP:  87;

OKC/WILEY POST CLEAR     78  48  34 N10       30.11R
OKC/TINKER AFB CLEAR     79  51  38 N13       30.09R
STILLWATER     CLEAR     74  42  31 N10       30.11R
GUTHRIE        CLEAR     76  49  38 N6        30.12R
$$

OKZ008-013-054>072-290100-
NORTHEAST OKLAHOMA

CITY           SKY/WX    TMP DP  RH WIND       PRES   REMARKS
TULSA          CLEAR     73  47  39 N15       30.08R
6HR MIN TEMP:  73; 6HR MAX TEMP:  85;

TULSA/JONES    CLEAR     74  45  35 N10       30.09R
PONCA CITY     CLEAR     70  47  43 N9        30.13R
BARTLESVILLE   CLEAR     69  48  47 N8G17     30.14R
MUSKOGEE       CLEAR     76  40  27 N14       30.07R
$$

OKZ032-040>043-046>053-073>077-290100-
SOUTH CENTRAL/SOUTHEAST OKLAHOMA

CITY           SKY/WX    TMP DP  RH WIND       PRES   REMARKS
ARDMORE/DWNTWN CLEAR     82  52  34 NE6       30.04R
MCALESTER      CLEAR     81  52  36 NE7       30.04R
$$




USA.gov is the U.S. government's official web portal to all federal, state and local government web resources and services.